Погода в Асанове

Казахстан     54°51′13″N   69°26′51″E
темп.,
°C
ветер,
м/с
пор.,
м/с
влажн.,
%
обл.,
%
осадки,
мм/ч
давл.,
гПа
погр.,
м
23 октября, сб
сб2300:00+4ююз81588100 0.0 1009536
03:00+6ююз91790100 0.2 1007689
06:00+6юз91778100 0.3 1006825
09:00+7зюз91669100 0.0 1006708
12:00+9зюз9156598 0.0 1008789
15:00+12зюз81462100 0.0 10091269
18:00+12зюз81363100 0.0 1010945
21:00+11зюз8156191 0.1 1012782
24 октября, вс
вс2400:00+9зюз816755 0.1 1013611
03:00+8зюз715805 0.0 1014470
06:00+7зюз5128764 0.0 1016338
09:00+7юз5118899 0.0 1017370
12:00+10зюз697398 0.0 1017551
15:00+12юз6962100 0.0 1016851
18:00+11ююз61270100 0.0 1014618
21:00+11юз81665100 0.0 1012878
25 октября, пн
пн2500:00+11юз91736100 0.0 1011849
03:00+11зюз91536100 0.0 10101001
06:00+8з71464100 0.0 1012898
09:00+6з5107126 0.0 1015801
12:00+8з5751100 0.0 1016908
15:00+9зюз4544100 0.0 10161025
18:00+8ююз2252100 0.0 101542
21:00+7ююв2557100 0.0 1013181
26 октября, вт
вт2600:00+8ю51168100 0.0 1010473
03:00+8ююз41071100 0.4 1008590
06:00+6з4789100 1.6 10061029
09:00+3сз5896100 1.4 1007451
12:00+2зсз61095100 1.8 1009746
15:00+2сз91259100 0.3 10121326
18:00+1сз711535 0.3 10161038
21:00−1зсз510635 0.0 1019616
27 октября, ср
ср2700:00−2з410715 0.0 1021307
03:00−3зюз49725 0.0 1022256
06:00−3юз4107231 0.0 1023252
09:00−3юз4107065 0.0 1024315
12:00+1зюз695132 0.0 1024699
15:00+3зюз684296 0.0 1023938
18:00+1юз365359 0.0 1023103
21:000юз366530 0.0 1024110